Cairns, Australia

11:46 AM AEST on November 18, 2017 (GMT +1000)
Cairns International

Weather History for YBCS - September, 2012

Change the Weather History Date:

Wednesday, September 12, 2012

  Actual Average Record
Temperature  
Mean Temperature 76 °F -  
Max Temperature 84 °F 83 °F 86 °F (2010)
Min Temperature 67 °F 67 °F 57 °F (2006)
Cooling Degree Days 10    
Growing Degree Days 26 (Base 50)    
Moisture  
Dew Point 63 °F    
Average Humidity 69    
Maximum Humidity 88    
Minimum Humidity 34    
Precipitation  
Precipitation 0.00 in 0.05 in - ()
Sea Level Pressure  
Sea Level Pressure 30.03 in    
Wind  
Wind Speed 11 mph ()    
Max Wind Speed 22 mph    
Max Gust Speed -    
Visibility 7.2 miles    
Events Rain    
Averages and records for this station are not official NWS values.
T = Trace of Precipitation, MM = Missing Value Source: Averaged Metar Reports

Daily Weather History Graph

Daily Weather History Graph

Search for Another Location

Airport or City:

Trip Planner

Search our weather history database for the weather conditions in past years. The results will help you decide how hot, cold, wet, or windy it might be!

Date:

Astronomy

Sep. 12, 2012 Rise Set
Actual Time 6:14 AM AEST 6:11 PM AEST
Civil Twilight 5:53 AM AEST 6:33 PM AEST
Nautical Twilight 5:28 AM AEST 6:58 PM AEST
Astronomical Twilight 5:03 AM AEST 7:23 PM AEST
Moon 2:57 AM AEST (9/12) 2:38 PM AEST (9/12)
Length of Visible Light 12h 40m
Length of Day
11h 56m
Waning Crescent, 18% of the Moon is Illuminated
Sep 12
Waning Crescent
Sep 16
New
Sep 23
First Quarter
Sep 30
Full
Oct 8
Last Quarter

Hourly Weather History & Observations

Time (AEST) Temp. Heat Index Dew Point Humidity Pressure Visibility Wind Dir Wind Speed Gust Speed Precip Events Conditions
12:00 AM 71 °F - 63 °F 70% 30.09 in - South 10.4 mph - -  
12:00 AM 71.6 °F - 62.6 °F 73% 30.06 in 6.2 mi South 10.4 mph - N/A   Scattered Clouds
12:30 AM 71.6 °F - 62.6 °F 73% 30.06 in 6.2 mi South 9.2 mph - N/A Rain Light Rain Showers
1:00 AM 71 °F - 63 °F 68% 30.08 in - South 9.2 mph - -  
1:00 AM 69.8 °F - 62.6 °F 78% 30.06 in 6.2 mi South 9.2 mph - N/A   Scattered Clouds
1:30 AM 71.6 °F - 62.6 °F 73% 30.04 in 6.2 mi South 10.4 mph - N/A   Partly Cloudy
2:00 AM 69.8 °F - 62.6 °F 78% 30.04 in 6.2 mi South 10.4 mph - N/A   Partly Cloudy
2:30 AM 69.8 °F - 62.6 °F 78% 30.04 in 6.2 mi South 9.2 mph - N/A   Partly Cloudy
3:00 AM 70 °F - 63 °F 72% 30.04 in - South 9.2 mph - -  
3:00 AM 69.8 °F - 62.6 °F 78% 30.04 in 6.2 mi South 9.2 mph - N/A   Partly Cloudy
3:30 AM 69.8 °F - 62.6 °F 78% 30.01 in 6.2 mi South 8.1 mph - N/A   Partly Cloudy
4:00 AM 70 °F - 63 °F 73% 30.04 in - South 9.2 mph - -  
4:00 AM 69.8 °F - 62.6 °F 78% 30.01 in 6.2 mi South 9.2 mph - N/A Rain Light Rain Showers
4:30 AM 69.8 °F - 64.4 °F 83% 30.01 in 6.2 mi South 9.2 mph - N/A   Mostly Cloudy
5:00 AM 69.8 °F - 62.6 °F 78% 30.04 in 6.2 mi South 9.2 mph - N/A Rain Light Rain Showers
5:30 AM 69.8 °F - 62.6 °F 78% 30.04 in 6.2 mi South 10.4 mph - N/A   Scattered Clouds
6:00 AM 68 °F - 64 °F 85% 30.05 in 3 mi South 11.5 mph - - Rain Light Rain Showers
6:00 AM 68.0 °F - 64.4 °F 88% 30.04 in 3.1 mi South 11.5 mph - N/A Rain Light Rain Showers
6:30 AM 68.0 °F - 64.4 °F 88% 30.04 in 5.6 mi South 10.4 mph - N/A   Mostly Cloudy
7:00 AM 69 °F - 65 °F 81% 30.07 in - South 9.2 mph - -  
7:00 AM 69.8 °F - 64.4 °F 83% 30.06 in 6.2 mi South 9.2 mph - N/A   Mostly Cloudy
7:30 AM 69.8 °F - 64.4 °F 83% 30.06 in 6.2 mi South 9.2 mph - N/A   Mostly Cloudy
8:00 AM 71.6 °F - 64.4 °F 78% 30.06 in 6.2 mi South 9.2 mph - N/A   Mostly Cloudy
8:30 AM 71.6 °F - 66.2 °F 83% 30.06 in 6.2 mi South 9.2 mph - N/A   Mostly Cloudy
9:00 AM 76 °F - 65 °F 62% 30.09 in 16 mi SSE 11.5 mph - -   Partly Cloudy
9:00 AM 75.2 °F - 66.2 °F 73% 30.06 in 6.2 mi SSE 11.5 mph - N/A   Scattered Clouds
9:30 AM 78.8 °F - 62.6 °F 57% 30.06 in 6.2 mi SE 18.4 mph - N/A   Partly Cloudy
10:00 AM 79 °F - 62 °F 45% 30.09 in - SE 20.7 mph - -  
10:00 AM 78.8 °F - 60.8 °F 54% 30.06 in 6.2 mi SE 20.7 mph - N/A   Partly Cloudy
10:30 AM 80.6 °F 81.8 °F 62.6 °F 54% 30.06 in 6.2 mi SE 20.7 mph - N/A   Partly Cloudy
11:00 AM 78.8 °F - 60.8 °F 54% 30.06 in 6.2 mi SE 20.7 mph - N/A   Partly Cloudy
11:30 AM 82.4 °F 82.5 °F 59.0 °F 45% 30.04 in 6.2 mi SE 20.7 mph - N/A   Partly Cloudy
12:00 PM 83 °F - 59 °F 34% 30.04 in 19 mi SE 19.6 mph - -   Partly Cloudy
12:00 PM 84.2 °F 83.8 °F 59.0 °F 42% 30.04 in 6.2 mi SE 19.6 mph - N/A   Scattered Clouds
12:30 PM 80.6 °F 80.8 °F 57.2 °F 45% 30.01 in 6.2 mi SE 21.9 mph - N/A   Mostly Cloudy
1:00 PM 80 °F - 59 °F 38% 30.03 in - SE 19.6 mph - -  
1:00 PM 80.6 °F 81.1 °F 59.0 °F 48% 30.01 in 6.2 mi SE 19.6 mph - N/A   Mostly Cloudy
1:30 PM 78.8 °F - 60.8 °F 54% 30.01 in 6.2 mi SE 19.6 mph - N/A   Mostly Cloudy
2:00 PM 78.8 °F - 59.0 °F 51% 29.98 in 6.2 mi SSE 19.6 mph - N/A   Mostly Cloudy
2:30 PM 77.0 °F - 62.6 °F 61% 29.98 in 6.2 mi SE 18.4 mph - N/A   Mostly Cloudy
3:00 PM 79 °F - 63 °F 48% 29.99 in 19 mi SSE 12.7 mph - -   Partly Cloudy
3:00 PM 78.8 °F - 62.6 °F 57% 29.98 in 6.2 mi SSE 12.7 mph - N/A   Scattered Clouds
3:30 PM 78.8 °F - 60.8 °F 54% 29.98 in 6.2 mi SE 18.4 mph - N/A   Partly Cloudy
4:00 PM 77 °F - 62 °F 51% 29.99 in - SE 20.7 mph - -  
4:00 PM 77.0 °F - 62.6 °F 61% 29.98 in 6.2 mi SE 20.7 mph - N/A   Partly Cloudy
4:30 PM 75.2 °F - 62.6 °F 65% 29.98 in 6.2 mi SSE 18.4 mph - N/A   Partly Cloudy
5:00 PM 75.2 °F - 62.6 °F 65% 29.98 in 6.2 mi SE 18.4 mph - N/A   Partly Cloudy
5:30 PM 75.2 °F - 62.6 °F 65% 29.98 in 6.2 mi SSE 15.0 mph - N/A   Scattered Clouds
6:00 PM 72 °F - 64 °F 69% 30.01 in 19 mi South 12.7 mph - -   Partly Cloudy
6:00 PM 71.6 °F - 64.4 °F 78% 30.01 in 6.2 mi South 12.7 mph - N/A   Scattered Clouds
6:30 PM 71.6 °F - 64.4 °F 78% 30.01 in 6.2 mi South 9.2 mph - N/A   Scattered Clouds
7:00 PM 71 °F - 64 °F 73% 30.03 in - South 9.2 mph - -  
7:00 PM 71.6 °F - 64.4 °F 78% 30.01 in 6.2 mi South 9.2 mph - N/A   Mostly Cloudy
7:30 PM 71.6 °F - 64.4 °F 78% 30.01 in 6.2 mi South 10.4 mph - N/A   Mostly Cloudy
8:00 PM 71.6 °F - 64.4 °F 78% 30.04 in 6.2 mi South 10.4 mph - N/A   Mostly Cloudy
8:30 PM 69.8 °F - 64.4 °F 83% 30.04 in 6.2 mi South 10.4 mph - N/A   Mostly Cloudy
9:00 PM 71 °F - 65 °F 74% 30.04 in 19 mi South 9.2 mph - -   Partly Cloudy
9:00 PM 71.6 °F - 64.4 °F 78% 30.04 in 6.2 mi South 9.2 mph - N/A   Mostly Cloudy
9:30 PM 71.6 °F - 64.4 °F 78% 30.04 in 6.2 mi South 9.2 mph - N/A   Mostly Cloudy
10:00 PM 71 °F - 64 °F 74% 30.04 in - SSE 11.5 mph - -  
10:00 PM 71.6 °F - 64.4 °F 78% 30.04 in 6.2 mi SSE 11.5 mph - N/A Rain Light Rain Showers
10:30 PM 69.8 °F - 64.4 °F 83% 30.04 in 6.2 mi SSE 9.2 mph - N/A   Scattered Clouds
11:00 PM 71.6 °F - 64.4 °F 78% 30.04 in 6.2 mi South 9.2 mph - N/A   Partly Cloudy
11:30 PM 71.6 °F - 64.4 °F 78% 30.04 in 6.2 mi South 10.4 mph - N/A   Partly Cloudy